Regional Weather Roundup
Issued by NWS State College, PA

Home | Current Version | Previous Version | Text Only | Print | Product List | Glossary On
Versions: 1 2 3 4 5 6 7 8 9 10 11 12 13 14 15 16 17 18 19 20 21 22 23 24 25 26 27 28 29 30 31 32 33 34 35 36 37 38 39 40 41 42 43 44 45 46 47 48 49 50
000
ASUS41 KCTP 280710
RWRCTP

REGIONAL WEATHER ROUNDUP
NATIONAL WEATHER SERVICE STATE COLLEGE PA
200 AM EST FRI NOV 28 2014

Note: "fair" indicates few or no clouds below 12,000 feet with no
significant weather and/or obstructions to visibility.

* = STATION THAT DOES NOT REPORT PRECIPITATION /E.G. RAIN...SNOW...ETC/
    THUNDER OR FOG.

PAZ002>004-007>009-013>016-020>023-029>032-280800-
WESTERN PENNSYLVANIA

CITY           SKY/WX    TMP DP  RH WIND       PRES   REMARKS
ERIE           CLOUDY    29  19  66 NW13      30.22R
MEADVILLE      FLURRIES  24  20  84 NW7       30.18R
FRANKLIN*      CLOUDY    25  19  80 NW8       30.18R
NEW CASTLE     FLURRIES  25  22  88 NW7       30.24R
BEAVER COUNTY  NOT AVBL
BUTLER*        CLOUDY    27  25  93 W6        30.20R
PITTSBURGH INT FLURRIES  28  23  81 NW15      30.21R
PITTSBURGH     CLOUDY    28  20  71 W13G21    30.19R
INDIANA*       CLOUDY    28  27  93 NW8       30.19R FOG
LATROBE        MOCLDY    28  25  86 W9G16     30.21S
WASHINGTON CO* PTCLDY    27  19  74 W8        30.24R
$$

PAZ004>006-010>012-017>019-024>028-033>037-041-042-045-046-049>053-280800-
CENTRAL PENNSYLVANIA

CITY           SKY/WX    TMP DP  RH WIND       PRES   REMARKS
BRADFORD       CLOUDY    23  17  78 NW16G24   30.07R WCI  10
DUBOIS         CLOUDY    25  20  81 W9        30.10R
CLEARFIELD     MOCLDY    27  21  78 W7        30.11R
JOHNSTOWN      CLOUDY    24  19  81 W14G24    30.09S WCI  12
ALTOONA        LGT SNOW  28  23  81 W9        30.13S
STATE COLLEGE  PTCLDY    29  22  74 W15       30.12R
WILLIAMSPORT   CLOUDY    31  25  78 NW5       30.10R
SELINSGROVE    CLOUDY    32  23  69 VRB3      30.12S
FT INDIANTOWN  PTCLDY    32  22  67 W7        30.12R
CAPITAL CITY   MOCLDY    33  22  63 W9        30.15R
HARRISBURG     FAIR      32  23  69 NW13      30.14R
YORK           CLEAR     31  21  66 W3        30.15R
$$

PAZ038>040-043-044-047-048-054-055-060>062-067>071-280800-
EASTERN PENNSYLVANIA

CITY           SKY/WX    TMP DP  RH WIND       PRES   REMARKS
SCRANTON       CLOUDY    26  22  84 W3        30.06R
MOUNT POCONO   LGT SNOW  24  20  84 W9        29.99R FOG     WCI  14
ALLENTOWN      LGT SNOW  28  25  88 CALM      30.10R FOG
QUAKERTOWN*    CLOUDY    27  27 100 CALM      30.10R
READING        CLOUDY    34  27  75 W8        30.11R
LANCASTER      PTCLDY    31  23  72 W13       30.13R
COATESVILLE    CLOUDY    32  28  86 NW12      30.11R
POTTSTOWN      FLURRIES  28  26  92 CALM      30.12R
BLUE BELL      MOCLDY    32  30  93 CALM      30.10R
DOYLESTOWN     CLOUDY    27  25  92 CALM      30.09R
WILLOW GROVE   NOT AVBL
NORTH PHILA    CLEAR     30  24  78 W6        30.13R
PHILADELPHIA   MOCLDY    32  27  81 W6        30.13R
$$



USA.gov is the U.S. government's official web portal to all federal, state and local government web resources and services.